Погода в Туле

Погода в Туле : погода сейчас, прогноз погоды и архив. Всё, что Вы хотите узнать о погоде в Туле!

Хотите узнать прогноз погоды в Туле? Тогда Вам сюда: Погода в Туле

Поиск расширенной информации на нашем сайте:

Полезная информация:

Другие новости

Новости СМИ2

Главная страница сайта

Новости сайта

03.07.2017

Напоминаем, что на нашем специализированном сайте Метеоцентр.Азия вы можете получить высокодетализированные автоматические прогнозы погоды по пунктам России, СНГ и мира в авиационном формате (включающие направление и скорость ветра, видимость, явления погоды, количество и форму облачности, нижнюю и верхнюю границу облачности).

Рекомендуем:

Погода в Туле - сегодня

Время (UTC), дата Ветер
(°,м/с) 
Видим.   Явления Облачность Т
(°С)
Тd
(°С)
f(%) Тe
(°С)
Pmin
(гПа)
dP
(гПа)
Po
(мм)
O2
(г/м3)
Тmin Tmax R s Состояние
почвы
21 18.05.19 060 (СВ) 10 км    ясно 
+10 +6.5 79 +11  1017.8  0.8  745  288           
00 19.05.19 тихо ()   10 км    ясно 
+7.2 +5.7 90 +7  1017.9  -0.2  745  291           
03 19.05.19 220 (ЮЗ) 10 км    ясно 
+8.5 +6.4 87 +10  1018.2  0.5  745  290  +6.4         
06 19.05.19 340 (С) 10 км    ясно 
+17.1 +4 42 +18  1018.3  0.8  746  282  +6.4        сухая 
09 19.05.19 340 (С) 10 км    1/1 1000 м 
[Cu hum]
+20.5 +3.3 32 +21  1017.6  -0.4  745  279           
12 19.05.19 340 (С) 3{10}  10 км    ясно 
+21.5 +2.5 29 +22  1017.3  -0.2  745  278           
15 19.05.19 360 (С) 4{10}  10 км    3/3 1000 м 
[Cu med, cong]
+21 -2.5 20 +21  1017.2  -0.2  745  279           
18 19.05.19 340 (С) 10 км    3/0 средняя 
[Ac trans]
+16 +4.4 46 +17  1018.6  746  283    +21.8       
21 19.05.19 040 (СВ) 10 км    3/0 верхняя 
[Ci fib]
+11.7 +6.1 68 +12  1020.1  1.1  747  287           
00 20.05.19 030 (СВ) 10 км    3/0 верхняя 
[Ci fib]
+8.5 +4.6 76 +10  1021.6  1.2  747  291           
03 20.05.19 тихо ()   10 км    6/0 средняя, верхняя 
[Ac trans|Ci fib]
+8.4 +4 74 +8  1022.5  0.8  748  292  +6.4         
06 20.05.19 350 (С) 10 км    4/0 средняя, верхняя 
[Ac trans|Ci fib]
+16.3 +1.1 36 +18  1022.2  0.4  748  284  +6.4        сухая 
09 20.05.19 250 (З) 10 км    4/0 средняя, верхняя 
[Ac trans|Ci fib]
+20.1 +2.9 32 +20  1021.7  -0.2  748  280           
12 20.05.19 290 (З) 10 км    8/4 1000 м верхняя 
[Cu med, cong|Ci fib]
+22.6 +4.6 31 +23  1020.5  -0.9  748  277           
15 20.05.19 330 (СЗ) 10 км    4/1 1000 м верхняя 
[Cu hum|Ci fib]
+22.7 +4.7 31 +23  1019.1  -1.3  747  277           
18 20.05.19 050 (СВ) 10 км    3/0 верхняя 
[Ci fib]
+16.3 +7.5 56 +18  1019.9  0.2  747  283    +23.2       
21 20.05.19 020 (С) 10 км    3/0 верхняя 
[Ci fib]
+12 +8.3 78 +13  1020.8  0.5  747  287           
00 21.05.19 060 (СВ) 10 км    6/0 средняя 
[Ac trans]
+9.4 +7.1 86 +10  1021.4  0.4  747  290           
03 21.05.19 030 (СВ) 10 км    3/0 верхняя 
[Ci fib]
+10.2 +6.5 78 +11  1021.2  -0.2  747  289  +8.4         
06 21.05.19 130 (ЮВ) 10 км    3/0 верхняя 
[Ci fib]
+19.6 +8.1 47 +21  1020.2  -0.1  747  280  +8.4        сухая 
09 21.05.19 тихо ()   10 км    8/3 1000 м верхняя 
[Cu med, cong|Cc]
+23 +7.1 36 +23  1019.5  -0.4  747  276           
12 21.05.19 тихо ()   10 км    8/5 1000 м верхняя 
[Cu med, cong|Ci fib]
+23.2 +7.2 36 +23  1018.3  -1.2  746  276           
15 21.05.19 140 (ЮВ) 10 км    6/6 1000 м 
[Cu med, cong]
+23.8 +5.8 31 +24  1016.6  -1.6  745  275           
18 21.05.19 170 (Ю) 10 км    4/0 средняя 
[Ac cuf]
+20.9 +7.1 41 +21  1016  -0.8  744  277    +24.8       
21 21.05.19 тихо ()   10 км    3/0 средняя 
[Ac trans]
+13.9 +9.1 73 +14  1016.2  -0.3  744  284           
Время (UTC), дата Ветер
(°,м/с) 
Видим.   Явления Облачность Т
(°С)
Тd
(°С)
f(%) Тe
(°С)
Pmin
(гПа)
dP
(гПа)
Po
(мм)
O2
(г/м3)
Тmin Tmax R s Состояние
почвы

Для получения пояснительной информации подведите курсор к названию столбца.

ПОГОДА в Туле - архив

Всё, что Вы хотите узнать о погоде в Туле - удобно и подробно!

Выберите нужную дату (начиная с 1 января 2018* года) и нажмите кнопку "Найти".
Будут отображены архивные сводки погоды по пункту Тула, начиная с указанной даты.


Отображать данные в формате CSV (для использования в таблицах Excel)


Внимание! Наш архив погоды предназначен исключительно для личного некоммерческого использования в познавательных целях. Если Вам необходимы официальные справки о состоянии погоды (для производственных, юридических, коммерческих и т.п. целей), обращайтесь в органы Росгидромета.

*Примечание: данная дата относится к архиву по метеостанциям СССР (Россия, СНГ, Балтия).
Архив по метеостанциям Зарубежной Европы и Азии (кроме Китая) хранится 10 дней, по другим регионам земного шара (Китай, Африка, Америка, Австралия, Океания) - 1 день.

Тула - район местоположения метеостанции


Название, широта, долгота, высота метеостанции:
Тула 54.2°ш. 37.6°д. 203 м над ур. моря [Российская Федерация]

Дополнительная информация

В oтличие oт бoльшинства пoгoдных сайтoв мы публикуем пoдрoбную метеoинфoрмацию в детальнoм прoфессиoнальнoм фoрмате.

Характеристики температуры и влажнoсти вoздуха измеряются на высoте 2 м в тени вдали oт зданий и деревьев.
Скoрoсть ветра измеряется на высoте 10 м (на урoвне рoста челoвека скoрoсть ветра ниже в 1.5-2 раза). Если метеoстанция нахoдится в гoрoде или в лесу, тo скoрoсть ветра занижена на 2-4 м/с пo сравнению с oткрытым местoм. Скoрoсть ветра над акватoриями крупных рек и oзёр, а также на вершинах хoлмoв на 2-5 м/с выше, чем в oбычных услoвиях.
Атмoсфернoе давление в разных тoчках местнoсти мoжет значительнo oтличаться oт давления на метеoстанции, в зависимoсти oт услoвий рельефа (при пoдъёме на 10 м давление пoнижается примернo на 1 мм рт.ст.).